Voltar ao catálogo

STARLINK-34033

AtivoComunicaçõesVLEO
NORAD 64045·PAYLOAD·🇺🇸 United States

Lançado May 16, 2025 de Vandenberg Space Force Base

Loading…

Próximas Passagens (próximas 24 horas)

TLE

AtualizadoSource: CelesTrak SupGP

Época: Sep 15, 2026, 03:50 UTC

1 64045C 25102Z   26258.16020833  .00098191  00000+0  34153-2 0  2588
2 64045  70.0009 355.1212 0003417 266.7421  82.9034 15.29532930    15

Acompanhe STARLINK-34033 em tempo real com AllMySat

Download on the App Store